CAPE
0 0 0 0 0 0 0 0 1 78 82 83 79 89 89 90 91 96 110 111 116 119 118 112 133 146 161
0 0 0 0 0 0 1 27 2 0 14 49 66 69 79 83 91 96 88 85 84 100 106 121 113 121 137
0 0 0 0 0 0 0 0 0 3 20 26 41 54 69 89 74 75 74 78 86 86 74 93 100 109 128
0 0 2 0 0 0 0 0 0 0 8 13 36 30 30 40 45 40 44 51 60 63 62 62 64 74 81
2 0 0 0 0 0 0 0 1 2 0 0 0 0 0 6 6 13 21 37 51 53 74 94 100 91 87
0 0 0 0 0 0 8 7 1 0 2 0 0 0 0 0 5 22 36 48 50 57 72 90 85 89 109
0 0 0 0 2 1 1 3 5 1 6 5 0 0 0 0 7 17 25 41 48 50 59 81 94 86 86
0 0 4 1 0 0 1 6 2 1 1 1 0 0 0 0 5 11 16 36 34 43 46 55 60 52 48
35 21 7 9 10 0 0 2 0 0 0 0 0 0 0 0 0 2 15 24 24 35 33 38 52 54 47
0 0 0 0 6 0 2 0 0 0 0 0 0 1 0 0 0 0 0 1 9 18 26 31 36 11 5
0 0 0 0 0 0 2 0 0 0 0 0 0 0 0 0 0 0 0 0 0 0 7 21 30 30 9
1 1 0 0 0 0 0 0 1 0 0 0 0 0 0 0 0 0 0 0 0 0 0 3 16 28 43
1 0 0 0 0 0 0 0 0 0 0 0 0 0 0 0 0 0 0 0 0 0 0 0 0 0 0
0 0 0 0 0 0 0 0 0 0 0 0 0 0 0 0 0 0 0 0 0 0 0 0 0 0 0
0 0 0 0 0 0 0 0 0 0 0 0 0 0 0 0 0 0 0 0 0 0 0 2 0 0 0
0 0 0 0 0 0 0 0 0 0 0 0 0 0 0 0 0 0 0 0 1 0 0 1 0 0 0
0 0 0 0 0 0 0 0 0 0 0 0 0 0 0 0 0 0 0 0 1 0 0 0 0 0 0
CIN
-0 -0 -0 -0 -0 -0 -0 -4 -3 -0 -0 -0 -0 -0 -0 -0 -0 -0 -0 -0 -0 -0 -0 -0 -0 -0 -0
-0 -0 -0 -0 -0 -0 -0 -0 -0 -0 -0 -0 -0 -0 -0 -0 -0 -0 -0 -0 -0 -0 -0 -0 -0 -0 -0
-0 -0 -0 -0 -0 -0 -0 -0 -0 -0 -0 -0 -0 -0 -0 -0 -0 -0 -0 -0 -0 -0 -0 -0 -0 -0 -0
-0 -0 -0 -0 -0 -0 -0 -0 -0 -0 -1 -0 -0 -0 -0 -0 -0 -0 -0 -0 -0 -0 -0 -0 -0 -0 -0
-0 -0 -0 -0 -0 -0 -0 -0 -2 -3 -0 -0 -0 -0 -0 -0 -0 -0 -0 -0 -0 -0 -0 -0 -0 -0 -0
-0 -1 -0 -0 -0 -0 -1 -0 -1 -0 -3 -0 -1 -1 -0 -0 -0 -0 -0 -0 -0 -0 -0 -0 -0 -0 -0
-0 -0 -0 -0 -1 -2 -2 -1 -0 -2 -0 -0 -0 -0 -0 -0 -0 -0 -0 -0 -0 -0 -0 -0 -0 -0 -0
-0 -2 -3 -5 -2 -2 -1 -0 -1 -1 -2 -0 -0 -0 -0 -0 -0 -0 -0 -0 -0 -0 -0 -0 -0 -0 -0
-0 -0 -0 -0 -0 -1 -0 -1 -0 -0 -0 -0 -0 -1 -0 -0 -0 -0 -0 -0 -0 -0 -0 -0 -0 -0 -0
-0 -0 -0 -0 -0 -1 -1 -1 -1 -0 -0 -0 -0 -1 -0 -0 -0 -0 -0 -0 -0 -0 -0 -0 -0 -0 -1
-0 -0 -0 -0 -0 -0 -1 -0 -0 -0 -0 -1 -0 -0 -0 -0 -0 -0 -0 -0 -0 -0 -0 -0 -0 -0 -0
-0 -1 -0 -0 -0 -0 -1 -0 -1 -0 -0 -0 -0 -0 -0 -0 -0 -0 -0 -0 -0 -0 -0 -0 -0 -0 -0
-1 -0 -0 -0 -0 -0 -0 -0 -0 -0 -0 -0 -0 -0 -0 -0 -0 -0 -0 -0 -0 -0 -0 -0 -0 -0 -0
-0 -0 -0 -0 -0 -0 -0 -0 -0 -0 -0 -0 -0 -0 -0 -0 -0 -0 -0 -0 -0 -0 -0 -0 -0 -0 -0
-0 -0 -0 -0 -0 -0 -0 -0 -0 -0 -0 -0 -0 -0 -0 -0 -0 -0 -0 -0 -0 -0 -0 -0 -0 -0 -0
-0 -0 -0 -0 -0 -0 -0 -0 -0 -0 -0 -0 -0 -0 -0 -0 -0 -0 -0 -0 -0 -0 -0 -0 -0 -0 -0
-0 -0 -0 -0 -0 -0 -0 -0 -0 -0 -0 -0 -0 -0 -0 -0 -0 -0 -0 -0 -0 -1 -0 -0 -0 -0 -0
Wind_Speed
12 13 14 14 13 11 12 12 12 22 27 33 35 37 39 38 39 37 37 36 34 35 36 36 37 37 37
16 14 15 16 15 14 10 9 10 22 30 33 35 35 35 35 34 34 35 35 36 36 36 36 34 35 36
16 13 14 11 12 11 12 13 10 24 28 30 31 33 35 34 37 36 36 36 35 35 35 34 34 34 34
13 13 9 10 11 13 12 11 13 11 17 27 30 31 33 33 34 34 34 34 34 34 34 34 34 34 35
8 13 12 13 13 13 14 13 13 12 13 12 11 12 14 24 27 32 32 32 32 32 32 32 32 33 34
12 13 15 13 13 12 12 15 17 8 9 15 11 13 13 12 26 31 33 33 33 33 33 33 34 33 34
15 14 16 15 14 15 16 14 15 13 13 16 11 14 13 14 29 32 33 33 33 33 34 33 33 34 35
12 15 14 15 16 14 16 17 14 12 11 16 12 15 14 13 30 33 33 32 31 31 31 32 32 33 34
23 25 29 27 23 12 11 12 15 14 11 12 12 14 15 16 15 27 28 29 30 30 31 31 32 33 28
12 15 17 16 24 12 11 12 13 14 9 9 13 11 9 9 8 11 12 24 28 29 30 31 32 15 14
11 11 11 11 10 10 11 11 12 13 17 13 9 12 8 13 10 9 10 13 12 16 26 29 29 26 14
10 11 11 11 11 12 15 14 12 16 18 16 11 12 12 14 15 10 12 13 10 11 11 19 28 30 31
10 11 10 12 13 13 13 14 15 15 13 15 11 13 11 12 12 13 15 10 11 11 11 11 13 11 12
9 11 11 10 11 10 11 12 12 12 11 11 12 11 12 11 9 14 12 8 11 12 11 10 11 10 11
10 11 11 11 12 10 10 11 10 12 14 12 12 11 11 13 10 9 12 12 12 13 12 11 10 9 9
10 10 11 11 11 11 9 9 10 11 11 11 12 13 12 5 11 8 10 12 15 13 12 12 11 8 6
10 11 10 11 14 11 10 9 10 10 9 9 9 9 11 11 6 12 12 13 15 13 13 12 8 11 4
Wind_Direction
292 299 295 291 289 283 278 275 279 290 288 286 290 290 288 288 285 286 283 281 282 279 278 276 274 269 267
296 298 296 299 294 294 292 286 269 272 281 285 287 292 294 292 291 287 285 282 282 281 275 273 275 276 275
290 292 292 299 307 295 288 284 282 287 290 289 289 291 290 289 286 284 285 283 282 278 276 274 272 272 271
280 290 309 305 296 304 301 292 291 290 288 282 288 289 288 291 288 287 286 286 281 277 274 274 273 270 268
317 301 307 311 306 301 293 297 294 290 285 289 281 278 277 282 280 282 283 279 275 272 271 269 266 263 261
304 302 302 301 298 298 298 303 301 289 285 288 281 280 277 273 277 279 278 277 277 275 270 267 268 262 259
303 296 294 297 297 302 300 294 293 297 296 288 290 281 279 276 281 282 280 279 278 276 274 270 267 263 260
292 292 290 301 300 300 297 293 288 290 287 285 291 283 287 281 282 283 283 281 279 276 273 267 264 261 257
303 309 306 306 306 304 301 302 299 300 298 285 291 290 288 282 275 276 278 281 283 283 277 268 263 263 261
313 306 303 297 304 302 299 295 296 301 298 298 298 304 299 269 275 280 272 274 278 278 274 270 266 259 252
308 303 304 304 304 300 295 291 293 288 290 303 298 295 280 301 297 286 277 278 276 275 275 272 268 260 250
305 306 310 306 305 303 297 290 281 278 288 288 282 289 290 293 295 294 293 286 275 272 267 263 266 263 256
308 304 302 300 300 303 301 295 291 285 281 281 278 283 278 281 286 294 300 300 290 275 271 262 257 250 253
302 300 301 305 307 309 305 309 307 307 302 290 292 288 294 284 283 285 296 300 293 286 276 270 266 251 246
303 304 305 309 306 309 304 307 303 309 316 320 319 306 288 275 286 285 304 305 312 311 306 296 287 263 248
304 300 302 303 307 309 308 302 305 309 310 318 325 331 332 292 225 292 316 323 326 325 322 316 312 304 255
299 298 298 304 311 307 307 307 308 306 311 314 318 332 329 327 291 309 331 328 332 338 339 333 327 333 50